Tracking 31027 objects as of 19-Jul-2025
HD Live streaming from Space Station
objects crossing your sky now

USA 402

Track USA 402 now!
10-day predictions


NORAD ID: 61023
Int'l Code: 2024-160C
Perigee: 582.1 km
Apogee: 586.3 km
Inclination: 70.0 °
Period: 96.2 minutes
Semi major axis: 6955 km
RCS: Unknown
Launch date: September 6, 2024
Source: United States (US)
Launch site: AIR FORCE WESTERN TEST RANGE (AFWTR)
Your satellite tracking list
STARLINK-30103
Track 1 satellite(s)




NASA's NSSDC Master Catalog

Two Line Element Set (TLE):
1 61023U 24160C   25162.97556164 0.00000000  00000-0  00000-0 0    07
2 61023  70.0000 222.7185 0003022 106.2350 253.7649 14.96715293    05
Source of the keplerian elements: McCants